Location: Unspecified
(0.0000°N, 0.0000°E)
Time: 15:13:05
(UTC+00:00)

Explorer 11/Cluster Stage 4 - Pass Details

Date: 28 February 2024
Orbit: 465 x 1219 km, 28.8° (Epoch: 24 April)

Event Time Altitude Azimuth Distance (km) Brightness Sun altitude
Rises 18:28:31 0° 226° (SW) 3,085 10.6 -3.9°
Reaches altitude 10° 18:30:49 10° 220° (SW) 2,278 9.7 -4.5°
Maximum altitude 18:36:03 45° 147° (SSE) 1,181 7.3 -5.8°
Drops below altitude 10° 18:42:27 10° 77° (ENE) 2,796 8.7 -7.4°
Enters shadow 18:42:54 - 75° (ENE) 2,950 8.8 -7.5°
